Date String (YYYY-MM-DD hh:mm:ss) UTC,Instrument flags,absolute air pressure of the measurement (hPa),sample flow rate (lpm),inlet stack bypass flow (lpm),air temperature of the measurement (°C),ambient temperature measured by the external sensor (°C),aerosol sample conditioner tube jacket temperature (°C),OPC LED temperature (°C),internal box temperature (°C),relative humidity of the measurement (%),span deviation,mass concentration of particles derived from Lorenz-Mie calculation of OPC scattering (μg/m³),mass concentration of particles derived from Lorenz-Mie calculation of OPC scattering (μg/m³),mass concentration of particles derived from Lorenz-Mie calculation of OPC scattering (μg/m³)
DateTimeUTC,F1_M11,P_M11,Q1_M11,Q2_M11,T1_M11,T2_M11,T3_M11,T4_M11,T5_M11,U1_M11,ZSPAN_M11,X2_M11,X0_M11,X1_M11
2023-06-12 21:00:00,SystemResetWarning,0828.7,5.00,000.00,029.3,027.7,000.0,038.1,030.7,26.2,0000.0,0002.74,0004.44,0001.94
2023-06-12 21:01:00,SystemResetWarning,0828.8,5.00,000.00,029.3,027.7,000.0,038.1,030.7,26.4,0000.0,0002.73,0004.42,0001.91
2023-06-12 21:02:00,SystemResetWarning,0828.7,5.00,000.00,029.3,027.7,000.0,038.1,030.7,27.1,0000.0,0002.72,0004.39,0001.91
2023-06-12 21:03:00,SystemResetWarning,0828.7,5.00,000.00,029.3,027.7,000.0,038.1,030.6,27.3,0000.0,0002.69,0004.31,0001.92
2023-06-12 21:04:00,SystemResetWarning,0828.8,5.00,000.00,029.3,027.7,000.0,038.1,030.6,26.7,0000.0,0002.67,0004.26,0001.91
2023-06-12 21:05:00,SystemResetWarning,0828.8,5.00,000.00,029.3,027.7,000.0,038.0,030.6,26.3,0000.0,0002.73,0004.41,0001.91
2023-06-12 21:06:00,SystemResetWarning,0828.7,5.00,000.00,029.3,027.7,000.0,038.0,030.6,26.9,0000.0,0002.75,0004.50,0001.90
2023-06-12 21:07:00,SystemResetWarning,0828.8,5.00,000.00,029.2,027.7,000.0,038.0,030.6,27.3,0000.0,0002.70,0004.36,0001.90
2023-06-12 21:08:00,SystemResetWarning,0828.8,5.00,000.00,029.2,027.7,000.0,038.0,030.5,26.8,0000.0,0002.76,0004.47,0001.90
2023-06-12 21:09:00,SystemResetWarning,0828.8,5.00,000.00,029.2,027.6,000.0,038.0,030.5,26.2,0000.0,0002.79,0004.49,0001.89
2023-06-12 21:10:00,SystemResetWarning,0828.8,5.00,000.00,029.2,027.6,000.0,038.0,030.5,25.3,0000.0,0002.73,0004.42,0001.86
2023-06-12 21:11:00,SystemResetWarning,0828.7,5.00,000.00,029.2,027.6,000.0,038.0,030.5,26.2,0000.0,0002.70,0004.32,0001.85
2023-06-12 21:12:00,SystemResetWarning,0828.7,5.00,000.00,029.2,027.6,000.0,037.9,030.4,25.9,0000.0,0002.61,0004.70,0001.82
2023-06-12 21:13:00,SystemResetWarning,0828.7,5.00,000.00,029.1,027.6,000.0,037.9,030.4,25.7,0000.0,0002.54,0004.59,0001.79
2023-06-12 21:14:00,SystemResetWarning,0828.6,5.00,000.00,029.1,027.5,000.0,037.9,030.4,26.1,0000.0,0002.51,0005.13,0001.79
2023-06-12 21:15:00,SystemResetWarning,0828.7,5.00,000.00,029.1,027.5,000.0,037.9,030.4,25.9,0000.0,0002.53,0005.24,0001.76
2023-06-12 21:16:00,SystemResetWarning,0828.6,5.00,000.00,029.1,027.5,000.0,037.9,030.4,25.5,0000.0,0002.49,0005.09,0001.74
2023-06-12 21:17:00,SystemResetWarning,0828.6,5.00,000.00,029.1,027.5,000.0,037.9,030.4,25.2,0000.0,0002.38,0004.75,0001.72
2023-06-12 21:18:00,SystemResetWarning,0828.7,5.00,000.00,029.0,027.4,000.0,037.8,030.3,25.1,0000.0,0002.34,0004.80,0001.70
2023-06-12 21:19:00,SystemResetWarning,0828.7,5.00,000.00,029.0,027.4,000.0,037.8,030.2,25.7,0000.0,0002.29,0004.96,0001.69
2023-06-12 21:20:00,SystemResetWarning,0828.7,5.01,000.00,029.0,027.4,000.0,037.8,030.2,26.8,0000.0,0002.25,0005.02,0001.68
2023-06-12 21:21:00,SystemResetWarning,0828.8,5.01,000.00,029.0,027.4,000.0,037.8,030.2,25.8,0000.0,0002.28,0005.15,0001.71
2023-06-12 21:22:00,SystemResetWarning,0828.8,5.00,000.00,028.9,027.3,000.0,037.8,030.2,25.3,0000.0,0002.29,0005.23,0001.70
2023-06-12 21:23:00,SystemResetWarning,0828.8,4.99,000.00,028.9,027.3,000.0,037.8,030.2,25.9,0000.0,0002.31,0004.81,0001.70
2023-06-12 21:24:00,SystemResetWarning,0828.8,5.00,000.00,028.9,027.3,000.0,037.7,030.2,25.7,0000.0,0002.32,0004.89,0001.70
2023-06-12 21:25:00,SystemResetWarning,0828.8,5.00,000.00,028.9,027.3,000.0,037.7,030.1,25.1,0000.0,0002.27,0004.84,0001.68
2023-06-12 21:26:00,SystemResetWarning,0828.8,5.00,000.00,028.9,027.3,000.0,037.7,030.1,25.2,0000.0,0002.25,0004.97,0001.69
2023-06-12 21:27:00,SystemResetWarning,0828.8,5.00,000.00,028.8,027.2,000.0,037.7,030.1,24.9,0000.0,0002.24,0005.07,0001.68
2023-06-12 21:28:00,SystemResetWarning,0828.8,4.99,000.00,028.8,027.2,000.0,037.7,030.1,25.4,0000.0,0002.24,0005.10,0001.68
2023-06-12 21:29:00,SystemResetWarning,0828.7,5.00,000.00,028.8,027.2,000.0,037.7,030.0,24.7,0000.0,0002.21,0004.92,0001.68
2023-06-12 21:30:00,SystemResetWarning,0828.7,5.00,000.00,028.8,027.2,000.0,037.6,030.0,24.5,0000.0,0002.18,0004.64,0001.67
2023-06-12 21:31:00,SystemResetWarning,0828.7,4.99,000.00,028.8,027.2,000.0,037.6,030.0,24.5,0000.0,0002.17,0004.52,0001.65
2023-06-12 21:32:00,SystemResetWarning,0828.7,5.00,000.00,028.8,027.2,000.0,037.6,030.0,24.5,0000.0,0002.11,0004.33,0001.62
2023-06-12 21:33:00,SystemResetWarning,0828.7,5.00,000.00,028.7,027.2,000.0,037.6,030.1,24.7,0000.0,0002.09,0004.26,0001.61
2023-06-12 21:34:00,SystemResetWarning,0828.7,5.00,000.00,028.7,027.2,000.0,037.6,030.1,24.8,0000.0,0002.06,0004.07,0001.60
2023-06-12 21:35:00,SystemResetWarning,0828.6,5.00,000.00,028.7,027.2,000.0,037.6,030.0,25.2,0000.0,0002.06,0004.00,0001.61
2023-06-12 21:36:00,SystemResetWarning,0828.7,5.00,000.00,028.7,027.1,000.0,037.5,030.0,24.4,0000.0,0002.06,0003.49,0001.60
2023-06-12 21:37:00,SystemResetWarning,0828.6,5.01,000.00,028.7,027.1,000.0,037.5,030.0,24.8,0000.0,0002.01,0003.06,0001.57
2023-06-12 21:38:00,SystemResetWarning,0828.6,5.01,000.00,028.7,027.2,000.0,037.5,030.0,25.0,0000.0,0001.98,0003.04,0001.56
2023-06-12 21:39:00,SystemResetWarning,0828.6,5.00,000.00,028.7,027.2,000.0,037.5,030.0,24.7,0000.0,0001.97,0003.31,0001.55
2023-06-12 21:40:00,SystemResetWarning,0828.6,4.99,000.00,028.7,027.2,000.0,037.5,030.0,24.6,0000.0,0001.99,0003.75,0001.55
2023-06-12 21:41:00,SystemResetWarning,0828.6,4.99,000.00,028.7,027.2,000.0,037.5,030.0,24.7,0000.0,0002.04,0003.99,0001.56
2023-06-12 21:42:00,SystemResetWarning,0828.6,5.00,000.00,028.7,027.2,000.0,037.5,030.0,24.4,0000.0,0002.05,0004.06,0001.56
2023-06-12 21:43:00,SystemResetWarning,0828.6,5.00,000.00,028.7,027.2,000.0,037.5,030.0,24.4,0000.0,0002.07,0004.05,0001.58
2023-06-12 21:44:00,SystemResetWarning,0828.6,5.01,000.00,028.7,027.2,000.0,037.4,030.0,24.1,0000.0,0002.05,0004.10,0001.58
2023-06-12 21:45:00,SystemResetWarning,0828.6,5.00,000.00,028.7,027.2,000.0,037.4,030.0,24.1,0000.0,0002.04,0004.58,0001.58
2023-06-12 21:46:00,SystemResetWarning,0828.6,5.00,000.00,028.7,027.2,000.0,037.4,030.0,24.1,0000.0,0002.01,0004.53,0001.56
2023-06-12 21:47:00,SystemResetWarning,0828.6,4.99,000.00,028.7,027.2,000.0,037.4,030.0,24.5,0000.0,0002.03,0004.55,0001.57
2023-06-12 21:48:00,SystemResetWarning,0828.5,4.99,000.00,028.7,027.3,000.0,037.4,030.1,23.6,0000.0,0002.03,0004.57,0001.58
2023-06-12 21:49:00,SystemResetWarning,0828.6,5.00,000.00,028.7,027.3,000.0,037.4,030.2,24.1,0000.0,0002.04,0004.40,0001.58
2023-06-12 21:50:00,SystemResetWarning,0828.5,5.00,000.00,028.7,027.3,000.0,037.4,030.2,24.9,0000.0,0002.04,0004.09,0001.59
2023-06-12 21:51:00,SystemResetWarning,0828.5,5.01,000.00,028.8,027.3,000.0,037.4,030.2,25.1,0000.0,0002.09,0003.84,0001.60
2023-06-12 21:52:00,SystemResetWarning,0828.5,5.00,000.00,028.8,027.4,000.0,037.4,030.2,26.0,0000.0,0002.06,0003.64,0001.60
2023-06-12 21:53:00,SystemResetWarning,0828.5,5.01,000.00,028.8,027.4,000.0,037.4,030.3,25.0,0000.0,0002.03,0003.54,0001.60
2023-06-12 21:54:00,SystemResetWarning,0828.5,5.00,000.00,028.8,027.5,000.0,037.4,030.3,25.5,0000.0,0002.07,0003.63,0001.60
2023-06-12 21:55:00,SystemResetWarning,0828.4,5.00,000.00,028.9,027.5,000.0,037.4,030.4,25.4,0000.0,0002.16,0003.73,0001.62
2023-06-12 21:56:00,SystemResetWarning,0828.4,5.00,000.00,028.9,027.6,000.0,037.4,030.5,25.8,0000.0,0002.19,0003.30,0001.64
2023-06-12 21:57:00,SystemResetWarning,0828.4,4.99,000.00,028.9,027.6,000.0,037.4,030.5,26.4,0000.0,0002.21,0003.33,0001.66
2023-06-12 21:58:00,SystemResetWarning,0828.4,5.00,000.00,028.9,027.7,000.0,037.5,030.5,25.1,0000.0,0002.26,0003.44,0001.66
2023-06-12 21:59:00,SystemResetWarning,0828.4,4.99,000.00,029.0,027.7,000.0,037.5,030.6,25.0,0000.0,0002.27,0003.44,0001.69
